Weather History for Bellefontaine, OH

Change the Weather History Date:

Sunday, December 22, 2013

  Actual Average (KDAY) Record (KDAY)
Temperature  
Mean Temperature 47 °F 29 °F  
Max Temperature 59 °F 36 °F 62 °F (1941)
Min Temperature 35 °F 23 °F -20 °F (1989)
Degree Days  
Heating Degree Days 18 36  
Month to date heating degree days 719  
Since 1 July heating degree days 1830  
Cooling Degree Days 0 0  
Month to date cooling degree days 0  
Year to date cooling degree days 891  
Moisture  
Dew Point 45 °F    
Average Humidity 93    
Maximum Humidity 100    
Minimum Humidity 81    
Precipitation  
Precipitation 0.32 in 0.11 in 1.34 in (1981)
Month to date precipitation 2.20  
Year to date precipitation 40.13  
Snow  
Snow 0.00 in 0.20 in 13.40 in (1981)
Month to date snowfall 2.8  
Since 1 July snowfall 3.8  
Snow Depth -    
Sea Level Pressure  
Sea Level Pressure 29.72 in    
Wind  
Wind Speed 14 mph (SW)    
Max Wind Speed 33 mph    
Max Gust Speed 41 mph    
Visibility 9 miles    
Events      
T = Trace of Precipitation, MM = Missing Value Source: NWS Daily Summary

Daily Weather History Graph

Daily Weather History Graph

Search for Another Location

Airport:

Trip Planner

Search our weather history database for the weather conditions in past years. The results will help you decide how hot, cold, wet, or windy it might be!

Date:

Astronomy

Dec. 22, 2013 Rise Set
Actual Time 7:55 AM EST 5:12 PM EST
Civil Twilight 7:24 AM EST 5:43 PM EST
Nautical Twilight 6:50 AM EST 6:17 PM EST
Astronomical Twilight 6:17 AM EST 6:51 PM EST
Moon 10:25 PM EST (12/22) 10:50 AM EST (12/22)
Length of Visible Light 10h 19m
Length of Day
9h 17m
Waning Gibbous, 77% of the Moon is Illuminated
Dec 22
Waning Gibbous
Dec 25
Last Quarter
Jan 1
New
Jan 7
First Quarter
Jan 15
Full

Hourly Weather History & Observations

Time (EST) Temp. Windchill Dew Point Humidity Pressure Visibility Wind Dir Wind Speed Gust Speed Precip Events Conditions
12:15 AM 39.2 °F - 39.2 °F 100% 29.55 in 7.0 mi Calm Calm - 0.02 in   Mostly Cloudy
12:35 AM 39.2 °F - 39.2 °F 100% 29.55 in 5.0 mi Calm Calm - 0.07 in   Mostly Cloudy
12:55 AM 41.0 °F - 41.0 °F 100% 29.56 in 2.5 mi Calm Calm - 0.13 in   Mostly Cloudy
1:15 AM 42.8 °F - 42.8 °F 100% 29.57 in 3.0 mi Calm Calm - 0.03 in   Overcast
1:35 AM 42.8 °F - 42.8 °F 100% 29.59 in 3.0 mi Calm Calm - 0.10 in   Overcast
1:55 AM 44.6 °F 39.2 °F 44.6 °F 100% 29.53 in 6.0 mi ESE 10.4 mph - 0.14 in   Overcast
2:15 AM 48.2 °F - 48.2 °F 100% 29.51 in 8.0 mi SSE 21.9 mph 31.1 mph 0.01 in   Mostly Cloudy
2:35 AM 53.6 °F - - N/A% 29.50 in 10.0 mi SSE 17.3 mph 26.5 mph 0.03 in   Scattered Clouds
2:55 AM 55.4 °F - - N/A% 29.51 in 8.0 mi SSE 19.6 mph 28.8 mph 0.05 in   Mostly Cloudy
3:15 AM 57.2 °F - - N/A% 29.49 in 10.0 mi SSE 26.5 mph 35.7 mph 0.00 in   Scattered Clouds
3:35 AM 57.2 °F - 57.2 °F 100% 29.44 in 10.0 mi South 26.5 mph 33.4 mph 0.00 in   Clear
3:55 AM 57.2 °F - 57.2 °F 100% 29.48 in 10.0 mi SSE 26.5 mph 36.8 mph 0.00 in   Clear
4:15 AM 59.0 °F - 57.2 °F 94% 29.47 in 10.0 mi South 26.5 mph 39.1 mph 0.00 in   Clear
4:35 AM 57.2 °F - 57.2 °F 100% 29.50 in 10.0 mi South 23.0 mph 34.5 mph 0.00 in   Scattered Clouds
4:55 AM 59.0 °F - 57.2 °F 94% 29.50 in 10.0 mi SSW 29.9 mph 41.4 mph 0.00 in   Overcast
5:15 AM 59.0 °F - 57.2 °F 94% 29.50 in 10.0 mi South 20.7 mph 31.1 mph 0.00 in   Mostly Cloudy
5:35 AM 57.2 °F - 57.2 °F 100% 29.52 in 10.0 mi South 20.7 mph 26.5 mph 0.00 in   Mostly Cloudy
5:55 AM 57.2 °F - 57.2 °F 100% 29.52 in 8.0 mi South 20.7 mph 29.9 mph 0.00 in   Overcast
6:15 AM 57.2 °F - 57.2 °F 100% 29.52 in 10.0 mi South 24.2 mph 40.3 mph 0.00 in   Overcast
6:35 AM 57.2 °F - 57.2 °F 100% 29.54 in 10.0 mi SSW 19.6 mph 27.6 mph 0.00 in   Overcast
6:55 AM 57.2 °F - 57.2 °F 100% 29.55 in 2.5 mi SW 15.0 mph 26.5 mph 0.00 in   Overcast
7:15 AM 57.2 °F - 57.2 °F 100% 29.57 in 10.0 mi SW 19.6 mph 27.6 mph 0.00 in   Overcast
7:35 AM 57.2 °F - 57.2 °F 100% 29.59 in 10.0 mi SW 21.9 mph 27.6 mph 0.00 in   Overcast
7:55 AM 57.2 °F - 55.4 °F 94% 29.61 in 10.0 mi SW 20.7 mph 26.5 mph 0.00 in   Overcast
8:15 AM 55.4 °F - 51.8 °F 88% 29.63 in 10.0 mi SW 33.4 mph 39.1 mph 0.00 in   Mostly Cloudy
8:35 AM 53.6 °F - 51.8 °F 94% 29.64 in 10.0 mi SSW 21.9 mph 29.9 mph 0.00 in   Partly Cloudy
8:55 AM 53.6 °F - 51.8 °F 94% 29.65 in 10.0 mi SW 23.0 mph 33.4 mph 0.00 in   Mostly Cloudy
9:15 AM 53.6 °F - 50.0 °F 88% 29.67 in 10.0 mi SW 21.9 mph 29.9 mph 0.00 in   Overcast
9:35 AM 51.8 °F - 48.2 °F 88% 29.68 in 10.0 mi SW 20.7 mph 26.5 mph 0.00 in   Mostly Cloudy
9:55 AM 51.8 °F - 48.2 °F 88% 29.69 in 10.0 mi SSW 23.0 mph 26.5 mph 0.00 in   Clear
10:15 AM 51.8 °F - 46.4 °F 82% 29.70 in 10.0 mi SW 24.2 mph 29.9 mph 0.00 in   Clear
10:35 AM 51.8 °F - 46.4 °F 82% 29.72 in 10.0 mi SW 25.3 mph 35.7 mph 0.00 in   Clear
10:55 AM 51.8 °F - 46.4 °F 82% 29.73 in 10.0 mi SW 23.0 mph 29.9 mph 0.00 in   Mostly Cloudy
11:15 AM 50.0 °F - 44.6 °F 82% 29.74 in 10.0 mi SW 17.3 mph 28.8 mph 0.00 in   Overcast
11:35 AM 48.2 °F - 42.8 °F 82% 29.75 in 10.0 mi SW 20.7 mph 32.2 mph 0.00 in   Overcast
11:55 AM 48.2 °F - 44.6 °F 87% 29.77 in 10.0 mi SW 18.4 mph 23.0 mph 0.00 in   Overcast
12:15 PM 48.2 °F - 42.8 °F 82% 29.77 in 10.0 mi SW 20.7 mph 28.8 mph 0.00 in   Overcast
12:25 PM 48.2 °F - 42.8 °F 82% 29.77 in 10.0 mi SW 21.9 mph 27.6 mph 0.00 in   Overcast
4:05 PM 44.6 °F 37.2 °F 39.2 °F 81% 29.84 in 10.0 mi SW 17.3 mph - 0.00 in   Overcast
4:15 PM 42.8 °F 33.8 °F 39.2 °F 87% 29.84 in 10.0 mi WSW 21.9 mph 27.6 mph 0.00 in   Overcast
4:35 PM 42.8 °F 34.8 °F 39.2 °F 87% 29.86 in 10.0 mi SW 17.3 mph 23.0 mph 0.00 in   Overcast
4:55 PM 42.8 °F 34.8 °F 39.2 °F 87% 29.86 in 10.0 mi SW 17.3 mph 23.0 mph 0.00 in   Overcast
5:15 PM 42.8 °F 36.6 °F 39.2 °F 87% 29.87 in 10.0 mi WSW 11.5 mph - 0.00 in   Overcast
5:35 PM 42.8 °F 35.8 °F 39.2 °F 87% 29.87 in 10.0 mi WSW 13.8 mph 19.6 mph 0.00 in   Overcast
5:55 PM 41.0 °F 32.2 °F 39.2 °F 93% 29.89 in 10.0 mi WSW 18.4 mph 23.0 mph 0.00 in   Overcast
6:15 PM 41.0 °F 33.9 °F 37.4 °F 87% 29.89 in 10.0 mi WSW 12.7 mph - 0.00 in   Overcast
6:35 PM 41.0 °F 35.2 °F 37.4 °F 87% 29.89 in 10.0 mi SW 9.2 mph - 0.00 in   Overcast
6:55 PM 41.0 °F 36.4 °F 37.4 °F 87% 29.90 in 10.0 mi SW 6.9 mph - 0.00 in   Overcast
7:15 PM 41.0 °F 36.4 °F 37.4 °F 87% 29.90 in 10.0 mi WSW 6.9 mph - 0.00 in   Overcast
7:35 PM 41.0 °F 33.9 °F 37.4 °F 87% 29.91 in 10.0 mi West 12.7 mph - 0.00 in   Overcast
7:55 PM 39.2 °F 32.0 °F 37.4 °F 93% 29.92 in 7.0 mi West 11.5 mph - 0.00 in   Overcast
8:15 PM 39.2 °F 32.0 °F 37.4 °F 93% 29.93 in 7.0 mi West 11.5 mph - 0.00 in   Overcast
8:35 PM 37.4 °F 29.3 °F 37.4 °F 100% 29.94 in 5.0 mi West 12.7 mph 17.3 mph 0.00 in   Overcast
8:55 PM 37.4 °F 29.8 °F 37.4 °F 100% 29.96 in 3.0 mi West 11.5 mph - 0.00 in   Overcast
9:15 PM 37.4 °F 30.8 °F 37.4 °F 100% 29.95 in 2.5 mi West 9.2 mph - 0.00 in   Overcast
9:35 PM 37.4 °F 30.8 °F 37.4 °F 100% 29.95 in 4.0 mi West 9.2 mph - 0.00 in   Overcast
9:55 PM 35.6 °F 29.2 °F 35.6 °F 100% 29.95 in 8.0 mi West 8.1 mph - 0.00 in   Overcast
10:15 PM 35.6 °F 28.6 °F 35.6 °F 100% 29.96 in 10.0 mi WSW 9.2 mph - 0.00 in   Overcast
10:35 PM 35.6 °F 29.2 °F 35.6 °F 100% 29.96 in 10.0 mi SW 8.1 mph - 0.00 in   Mostly Cloudy
10:55 PM 35.6 °F 28.0 °F 35.6 °F 100% 29.96 in 7.0 mi West 10.4 mph - 0.00 in   Overcast
11:15 PM 35.6 °F 27.1 °F 33.8 °F 93% 29.96 in 10.0 mi West 12.7 mph - 0.00 in   Overcast
11:35 PM 35.6 °F 29.2 °F 32.0 °F 87% 29.98 in 10.0 mi WSW 8.1 mph - 0.00 in   Overcast
11:55 PM 35.6 °F 29.2 °F 32.0 °F 87% 29.98 in 10.0 mi WSW 8.1 mph - 0.00 in   Overcast